QTR52N LOWW-OTHH

Flight info

Callsign QTR52N
Flight time 5h 7m
Altitude 39000
Route ARSIN DCT NALOX DCT SUNOR DCT OSDUK DCT SIVLA DCT PODOB DCT AKIKA DCT RINAV DCT UNDER DCT ELBAK DCT ADDER DCT DIMIS UL604 SALUN N705 MMA P751 DASUM Y234 FYM M872 BDB Y214 ASPUS Y432 LADBO T142 LAEEB
Aircraft A359/H-SDE2E3GHIJ3J4J5LM1ORWXY/LB1D1

Departure

Time 2026-05-05 00:13
Airport Vienna International Airport (LOWW)

Arrival

Time 2026-05-05 05:21
Airport Hamad International Airport (OTHH)
Time Latitude Longitude Altitude Speed Heading
2026-05-04 23:54 48.11800 16.56496 615 ft 0 kts 26°
2026-05-04 23:58 48.11799 16.56496 615 ft 0 kts 26°
2026-05-05 00:04 48.11790 16.56489 614 ft 4 kts 30°
2026-05-05 00:04 48.11768 16.56465 629 ft 4 kts 46°
2026-05-05 00:05 48.11752 16.56434 629 ft 4 kts 70°
2026-05-05 00:05 48.11749 16.56397 629 ft 4 kts 111°
2026-05-05 00:05 48.11753 16.56384 629 ft 0 kts 116°
2026-05-05 00:08 48.11753 16.56385 629 ft 1 kts 116°
2026-05-05 00:08 48.11746 16.56404 627 ft 4 kts 116°
2026-05-05 00:08 48.11725 16.56468 629 ft 9 kts 116°
2026-05-05 00:08 48.11691 16.56573 622 ft 13 kts 116°
2026-05-05 00:09 48.11645 16.56712 625 ft 17 kts 116°
2026-05-05 00:09 48.11589 16.56883 627 ft 20 kts 116°
2026-05-05 00:09 48.11527 16.57075 625 ft 21 kts 116°
2026-05-05 00:09 48.11464 16.57269 622 ft 18 kts 116°
2026-05-05 00:10 48.11438 16.57404 627 ft 10 kts 69°
2026-05-05 00:10 48.11500 16.57471 629 ft 13 kts 28°
2026-05-05 00:10 48.11585 16.57538 629 ft 14 kts 21°
2026-05-05 00:10 48.11685 16.57523 626 ft 15 kts 345°
2026-05-05 00:11 48.11794 16.57478 628 ft 17 kts 345°
2026-05-05 00:11 48.11914 16.57429 629 ft 19 kts 345°
2026-05-05 00:11 48.12006 16.57435 622 ft 12 kts 52°
2026-05-05 00:11 48.12002 16.57552 623 ft 12 kts 104°
2026-05-05 00:12 48.11981 16.57677 625 ft 13 kts 104°
2026-05-05 00:12 48.11947 16.57805 629 ft 13 kts 128°
2026-05-05 00:12 48.11864 16.57864 627 ft 14 kts 163°
2026-05-05 00:12 48.11732 16.57921 629 ft 35 kts 164°
2026-05-05 00:13 48.11289 16.58109 623 ft 96 kts 164°
2026-05-05 00:13 48.10474 16.58456 628 ft 146 kts 165°
2026-05-05 00:13 48.09466 16.58847 1152 ft 147 kts 165°
2026-05-05 00:13 48.08443 16.59236 1673 ft 156 kts 169°
2026-05-05 00:14 48.07346 16.59657 2045 ft 171 kts 169°
2026-05-05 00:14 48.06123 16.60160 2306 ft 194 kts 167°
2026-05-05 00:14 48.04748 16.60781 2548 ft 218 kts 167°
2026-05-05 00:14 48.03225 16.61459 2894 ft 237 kts 167°
2026-05-05 00:15 48.01619 16.62163 3501 ft 244 kts 167°
2026-05-05 00:15 47.99972 16.62873 4140 ft 248 kts 167°
2026-05-05 00:15 47.98271 16.63356 4786 ft 250 kts 180°
2026-05-05 00:15 47.96520 16.63346 5397 ft 253 kts 185°
2026-05-05 00:16 47.94746 16.63224 6077 ft 259 kts 185°
2026-05-05 00:16 47.92922 16.63094 6706 ft 265 kts 185°
2026-05-05 00:16 47.91072 16.62969 7459 ft 268 kts 184°
2026-05-05 00:16 47.89203 16.62847 8247 ft 270 kts 184°
2026-05-05 00:17 47.87316 16.62726 9029 ft 273 kts 184°
2026-05-05 00:17 47.85401 16.62606 9753 ft 279 kts 184°
2026-05-05 00:17 47.83433 16.62483 10292 ft 290 kts 184°
2026-05-05 00:17 47.81355 16.62351 10623 ft 308 kts 184°
2026-05-05 00:18 47.79152 16.62212 10925 ft 326 kts 184°
2026-05-05 00:18 47.76829 16.62130 11270 ft 341 kts 179°
2026-05-05 00:18 47.74480 16.62881 11832 ft 351 kts 160°
2026-05-05 00:18 47.72229 16.64370 12521 ft 356 kts 156°
2026-05-05 00:19 47.69986 16.65976 13221 ft 360 kts 156°
2026-05-05 00:19 47.67753 16.67573 13895 ft 363 kts 156°
2026-05-05 00:19 47.65470 16.69195 14554 ft 365 kts 156°
2026-05-05 00:19 47.63169 16.70821 15205 ft 368 kts 156°
2026-05-05 00:20 47.60855 16.72450 15852 ft 370 kts 157°
2026-05-05 00:20 47.58509 16.74069 16487 ft 372 kts 159°
2026-05-05 00:20 47.56051 16.75249 17109 ft 372 kts 170°
2026-05-05 00:20 47.55099 16.75509 17372 ft 372 kts 172°
2026-05-05 00:21 47.52648 16.75953 18217 ft 362 kts 176°
2026-05-05 00:21 47.50124 16.76231 18658 ft 369 kts 178°
2026-05-05 00:21 47.47523 16.76432 18936 ft 380 kts 179°
2026-05-05 00:21 47.44859 16.76615 19393 ft 386 kts 178°
2026-05-05 00:22 47.42158 16.76813 19895 ft 391 kts 178°
2026-05-05 00:22 47.39426 16.77036 20398 ft 396 kts 178°
2026-05-05 00:22 47.36657 16.77281 20912 ft 401 kts 178°
2026-05-05 00:22 47.33856 16.77541 21427 ft 405 kts 178°
2026-05-05 00:23 47.31027 16.77812 21953 ft 410 kts 178°
2026-05-05 00:23 47.28165 16.78088 22471 ft 414 kts 178°
2026-05-05 00:23 47.25269 16.78367 22940 ft 420 kts 178°
2026-05-05 00:23 47.22341 16.78649 23476 ft 424 kts 178°
2026-05-05 00:24 47.19387 16.78931 23903 ft 427 kts 178°
2026-05-05 00:24 47.16414 16.79215 24419 ft 429 kts 178°
2026-05-05 00:24 47.13428 16.79499 24889 ft 431 kts 178°
2026-05-05 00:24 47.10423 16.79784 25335 ft 435 kts 178°
2026-05-05 00:25 47.07394 16.80071 25780 ft 438 kts 178°
2026-05-05 00:25 47.04341 16.80360 26238 ft 441 kts 178°
2026-05-05 00:25 47.01271 16.80650 26676 ft 444 kts 178°
2026-05-05 00:25 46.98182 16.80941 27110 ft 447 kts 178°
2026-05-05 00:26 46.95068 16.81235 27526 ft 450 kts 178°
2026-05-05 00:26 46.91934 16.81644 27937 ft 454 kts 173°
2026-05-05 00:26 46.88835 16.82629 28377 ft 458 kts 164°
2026-05-05 00:26 46.85857 16.84338 28774 ft 463 kts 154°
2026-05-05 00:27 46.83100 16.86806 29184 ft 467 kts 144°
2026-05-05 00:27 46.80518 16.89723 29595 ft 471 kts 142°
2026-05-05 00:27 46.77991 16.92792 29955 ft 474 kts 140°
2026-05-05 00:27 46.75479 16.95938 30274 ft 478 kts 140°
2026-05-05 00:28 46.72961 16.99110 30591 ft 480 kts 140°
2026-05-05 00:28 46.70421 17.02293 30907 ft 482 kts 140°
2026-05-05 00:28 46.67900 17.05425 31228 ft 484 kts 141°
2026-05-05 00:28 46.65291 17.08639 31524 ft 486 kts 141°
2026-05-05 00:29 46.62735 17.11770 31792 ft 488 kts 141°
2026-05-05 00:29 46.60134 17.14943 32075 ft 490 kts 141°
2026-05-05 00:29 46.57514 17.18133 32354 ft 491 kts 141°
2026-05-05 00:29 46.54887 17.21326 32591 ft 494 kts 141°
2026-05-05 00:30 46.52243 17.24536 32784 ft 497 kts 141°
2026-05-05 00:30 46.49591 17.27752 33152 ft 496 kts 141°
2026-05-05 00:30 46.46948 17.30957 33558 ft 494 kts 141°
2026-05-05 00:30 46.44322 17.34162 33945 ft 493 kts 141°
2026-05-05 00:31 46.41703 17.37375 34267 ft 492 kts 141°
2026-05-05 00:31 46.39093 17.40581 34535 ft 492 kts 141°
2026-05-05 00:31 46.36483 17.43783 34794 ft 492 kts 141°
2026-05-05 00:31 46.33869 17.46982 35047 ft 492 kts 141°
2026-05-05 00:32 46.31255 17.50176 35264 ft 493 kts 141°
2026-05-05 00:32 46.28632 17.53372 35473 ft 493 kts 141°
2026-05-05 00:32 46.26007 17.56566 35724 ft 493 kts 141°
2026-05-05 00:32 46.23384 17.59753 35966 ft 493 kts 141°
2026-05-05 00:33 46.20762 17.62934 36176 ft 493 kts 141°
2026-05-05 00:33 46.18134 17.66117 36375 ft 493 kts 141°
2026-05-05 00:33 46.15507 17.69297 36589 ft 493 kts 141°
2026-05-05 00:33 46.12881 17.72470 36804 ft 493 kts 141°
2026-05-05 00:34 46.10253 17.75643 37004 ft 493 kts 141°
2026-05-05 00:34 46.07622 17.78814 37205 ft 493 kts 141°
2026-05-05 00:34 46.04992 17.81981 37400 ft 493 kts 141°
2026-05-05 00:34 46.02361 17.85145 37603 ft 492 kts 141°
2026-05-05 00:35 45.99734 17.88299 37809 ft 492 kts 141°
2026-05-05 00:35 45.97104 17.91454 37970 ft 492 kts 141°
2026-05-05 00:35 45.94475 17.94604 38102 ft 493 kts 141°
2026-05-05 00:35 45.91872 17.97716 38219 ft 494 kts 141°
2026-05-05 00:36 45.89232 18.00871 38387 ft 494 kts 141°
2026-05-05 00:36 45.86594 18.04019 38556 ft 493 kts 141°
2026-05-05 00:36 45.83958 18.07160 38724 ft 492 kts 141°
2026-05-05 00:36 45.81266 18.10188 38833 ft 492 kts 146°
2026-05-05 00:37 45.78338 18.12708 38944 ft 491 kts 155°
2026-05-05 00:37 45.71924 18.15962 39040 ft 491 kts 166°
2026-05-05 00:38 45.65293 18.18413 39040 ft 493 kts 167°
2026-05-05 00:38 45.58640 18.20748 39040 ft 492 kts 167°
2026-05-05 00:39 45.51992 18.23117 39036 ft 493 kts 167°
2026-05-05 00:39 45.45345 18.25517 39035 ft 493 kts 167°
2026-05-05 00:40 45.38686 18.27927 39038 ft 494 kts 167°
2026-05-05 00:40 45.33151 18.29925 39038 ft 494 kts 167°
2026-05-05 00:41 45.26490 18.32324 39042 ft 494 kts 167°
2026-05-05 00:41 45.19830 18.34715 39039 ft 494 kts 167°
2026-05-05 00:42 45.13167 18.37101 39043 ft 494 kts 167°
2026-05-05 00:42 45.06591 18.39964 39034 ft 495 kts 162°
2026-05-05 00:43 45.00074 18.43173 39046 ft 496 kts 162°
2026-05-05 00:43 44.93562 18.46432 39048 ft 497 kts 162°
2026-05-05 00:44 44.87043 18.49682 39051 ft 497 kts 162°
2026-05-05 00:44 44.80520 18.52915 39050 ft 497 kts 162°
2026-05-05 00:45 44.73987 18.56140 39058 ft 497 kts 162°
2026-05-05 00:45 44.67454 18.59357 39065 ft 498 kts 162°
2026-05-05 00:46 44.60963 18.62547 39070 ft 498 kts 162°
2026-05-05 00:46 44.54413 18.65758 39075 ft 499 kts 162°
2026-05-05 00:47 44.47856 18.68964 39075 ft 499 kts 162°
2026-05-05 00:47 44.41292 18.72167 39072 ft 499 kts 162°
2026-05-05 00:48 44.34728 18.75362 39088 ft 500 kts 162°
2026-05-05 00:48 44.28151 18.78555 39093 ft 500 kts 162°
2026-05-05 00:49 44.21576 18.81741 39095 ft 500 kts 162°
2026-05-05 00:49 44.15000 18.84920 39099 ft 501 kts 162°
2026-05-05 00:50 44.08402 18.88100 39106 ft 501 kts 162°
2026-05-05 00:50 44.01806 18.91272 39117 ft 502 kts 162°
2026-05-05 00:51 43.95208 18.94439 39117 ft 502 kts 162°
2026-05-05 00:51 43.88596 18.97605 39125 ft 503 kts 162°
2026-05-05 00:52 43.81975 19.00767 39130 ft 503 kts 162°
2026-05-05 00:52 43.75353 19.03922 39132 ft 503 kts 162°
2026-05-05 00:53 43.68728 19.07072 39146 ft 504 kts 162°
2026-05-05 00:53 43.62093 19.10219 39144 ft 504 kts 162°
2026-05-05 00:54 43.55460 19.13356 39146 ft 504 kts 162°
2026-05-05 00:54 43.48814 19.16490 39155 ft 505 kts 163°
2026-05-05 00:55 43.42201 19.19578 39166 ft 505 kts 163°
2026-05-05 00:55 43.35549 19.22673 39170 ft 505 kts 163°
2026-05-05 00:56 43.28883 19.25771 39175 ft 507 kts 163°
2026-05-05 00:56 43.22202 19.28871 39171 ft 507 kts 163°
2026-05-05 00:57 43.15516 19.31968 39172 ft 507 kts 163°
2026-05-05 00:57 43.08830 19.35057 39174 ft 507 kts 163°
2026-05-05 00:58 43.02138 19.38142 39177 ft 507 kts 163°
2026-05-05 00:58 42.95451 19.41216 39173 ft 507 kts 163°
2026-05-05 00:59 42.88758 19.44288 39174 ft 508 kts 163°
2026-05-05 00:59 42.82056 19.47355 39172 ft 508 kts 163°
2026-05-05 01:00 42.75352 19.50416 39169 ft 508 kts 163°
2026-05-05 01:00 42.68643 19.53474 39174 ft 509 kts 163°
2026-05-05 01:01 42.61957 19.56513 39164 ft 510 kts 163°
2026-05-05 01:01 42.55227 19.59566 39162 ft 510 kts 163°
2026-05-05 01:02 42.48458 19.62381 39153 ft 509 kts 168°
2026-05-05 01:02 42.41569 19.64587 39150 ft 509 kts 169°
2026-05-05 01:03 42.34656 19.66758 39141 ft 510 kts 168°
2026-05-05 01:03 42.27758 19.69016 39146 ft 511 kts 168°
2026-05-05 01:04 42.20850 19.71325 39144 ft 512 kts 168°
2026-05-05 01:04 42.10474 19.74801 39141 ft 512 kts 168°
2026-05-05 01:05 42.03554 19.77106 39145 ft 513 kts 168°
2026-05-05 01:05 41.96582 19.79094 39146 ft 512 kts 174°
2026-05-05 01:06 41.89537 19.80432 39145 ft 511 kts 175°
2026-05-05 01:06 41.82472 19.81656 39143 ft 513 kts 175°
2026-05-05 01:07 41.75393 19.82874 39142 ft 513 kts 175°
2026-05-05 01:07 41.68312 19.84105 39139 ft 513 kts 175°
2026-05-05 01:08 41.61218 19.85342 39138 ft 515 kts 175°
2026-05-05 01:08 41.54115 19.86579 39140 ft 515 kts 175°
2026-05-05 01:09 41.47008 19.87814 39141 ft 515 kts 175°
2026-05-05 01:09 41.39898 19.89048 39151 ft 516 kts 175°
2026-05-05 01:10 41.32775 19.90283 39155 ft 516 kts 175°
2026-05-05 01:10 41.25654 19.91511 39140 ft 516 kts 175°
2026-05-05 01:11 41.18532 19.92736 39147 ft 517 kts 175°
2026-05-05 01:11 41.11398 19.93962 39146 ft 517 kts 175°
2026-05-05 01:12 41.04442 19.96431 39144 ft 521 kts 158°
2026-05-05 01:12 40.97850 20.00486 39144 ft 523 kts 155°
2026-05-05 01:13 40.91345 20.04799 39142 ft 523 kts 154°
2026-05-05 01:13 40.84843 20.09117 39150 ft 523 kts 154°
2026-05-05 01:14 40.78333 20.13433 39146 ft 524 kts 155°
2026-05-05 01:14 40.71816 20.17731 39157 ft 523 kts 154°
2026-05-05 01:15 40.65298 20.22014 39160 ft 524 kts 154°
2026-05-05 01:15 40.58775 20.26290 39158 ft 524 kts 155°
2026-05-05 01:16 40.52243 20.30563 39167 ft 525 kts 155°
2026-05-05 01:16 40.45694 20.34820 39176 ft 525 kts 155°
2026-05-05 01:17 40.39173 20.39015 39175 ft 525 kts 155°
2026-05-05 01:17 40.32606 20.43232 39170 ft 526 kts 155°
2026-05-05 01:18 40.26033 20.47451 39190 ft 527 kts 155°
2026-05-05 01:18 40.19447 20.51673 39175 ft 526 kts 155°
2026-05-05 01:19 40.12871 20.55880 39176 ft 526 kts 155°
2026-05-05 01:19 40.06293 20.60079 39173 ft 527 kts 155°
2026-05-05 01:20 39.99665 20.64173 39176 ft 527 kts 156°
2026-05-05 01:20 39.93008 20.68193 39177 ft 527 kts 156°
2026-05-05 01:21 39.86350 20.72220 39171 ft 528 kts 156°
2026-05-05 01:21 39.79680 20.76263 39180 ft 529 kts 156°
2026-05-05 01:22 39.73000 20.80312 39182 ft 530 kts 156°
2026-05-05 01:22 39.66356 20.84426 39189 ft 528 kts 154°
2026-05-05 01:23 39.59863 20.88908 39181 ft 529 kts 152°
2026-05-05 01:23 39.53380 20.93452 39178 ft 530 kts 153°
2026-05-05 01:24 39.46867 20.97940 39175 ft 530 kts 153°
2026-05-05 01:24 39.40389 21.02351 39174 ft 530 kts 153°
2026-05-05 01:25 39.33850 21.06784 39168 ft 532 kts 154°
2026-05-05 01:25 39.27295 21.11220 39169 ft 532 kts 154°
2026-05-05 01:26 39.20733 21.15653 39184 ft 532 kts 153°
2026-05-05 01:26 39.14183 21.20069 39163 ft 531 kts 154°
2026-05-05 01:27 39.07632 21.24478 39166 ft 532 kts 154°
2026-05-05 01:27 39.01075 21.28880 39176 ft 532 kts 154°
2026-05-05 01:28 38.94513 21.33277 39175 ft 532 kts 154°
2026-05-05 01:28 38.89059 21.36925 39157 ft 532 kts 154°
2026-05-05 01:29 38.82481 21.41315 39164 ft 534 kts 154°
2026-05-05 01:29 38.75883 21.45710 39165 ft 534 kts 154°
2026-05-05 01:30 38.69284 21.50100 39179 ft 535 kts 154°
2026-05-05 01:30 38.62682 21.54483 39160 ft 534 kts 154°
2026-05-05 01:31 38.56083 21.58850 39175 ft 534 kts 154°
2026-05-05 01:31 38.49473 21.63215 39173 ft 535 kts 154°
2026-05-05 01:32 38.42867 21.67571 39166 ft 535 kts 154°
2026-05-05 01:32 38.36253 21.71923 39166 ft 536 kts 154°
2026-05-05 01:33 38.29617 21.76281 39163 ft 537 kts 154°
2026-05-05 01:33 38.22978 21.80631 39161 ft 536 kts 154°
2026-05-05 01:34 38.16352 21.84965 39157 ft 535 kts 154°
2026-05-05 01:34 38.09720 21.89293 39171 ft 537 kts 154°
2026-05-05 01:35 38.03069 21.93625 39173 ft 538 kts 155°
2026-05-05 01:35 37.96408 21.97954 39177 ft 538 kts 155°
2026-05-05 01:36 37.89752 22.02271 39173 ft 538 kts 155°
2026-05-05 01:36 37.83069 22.06596 39179 ft 540 kts 155°
2026-05-05 01:37 37.76376 22.10918 39187 ft 540 kts 155°
2026-05-05 01:37 37.69683 22.15233 39188 ft 539 kts 155°
2026-05-05 01:38 37.62998 22.19534 39184 ft 540 kts 155°
2026-05-05 01:38 37.56341 22.23808 39185 ft 541 kts 155°
2026-05-05 01:39 37.49629 22.28107 39188 ft 541 kts 155°
2026-05-05 01:39 37.42916 22.32400 39188 ft 542 kts 155°
2026-05-05 01:40 37.36194 22.36692 39176 ft 542 kts 155°
2026-05-05 01:40 37.29455 22.40964 39173 ft 543 kts 156°
2026-05-05 01:41 37.22706 22.45230 39172 ft 543 kts 156°
2026-05-05 01:41 37.15961 22.49488 39161 ft 542 kts 155°
2026-05-05 01:42 37.09211 22.53744 39154 ft 544 kts 156°
2026-05-05 01:42 37.02440 22.58003 39153 ft 545 kts 156°
2026-05-05 01:43 36.95669 22.62256 39143 ft 545 kts 156°
2026-05-05 01:43 36.88891 22.66504 39136 ft 545 kts 156°
2026-05-05 01:44 36.82100 22.70751 39143 ft 547 kts 156°
2026-05-05 01:44 36.75296 22.74998 39132 ft 547 kts 156°
2026-05-05 01:45 36.68486 22.79240 39139 ft 547 kts 156°
2026-05-05 01:45 36.61727 22.83443 39114 ft 546 kts 156°
2026-05-05 01:46 36.54909 22.87673 39124 ft 549 kts 156°
2026-05-05 01:46 36.48072 22.91906 39124 ft 549 kts 156°
2026-05-05 01:47 36.41233 22.96134 39122 ft 549 kts 156°
2026-05-05 01:47 36.34396 23.00351 39114 ft 549 kts 157°
2026-05-05 01:48 36.27538 23.04573 39118 ft 550 kts 157°
2026-05-05 01:48 36.20679 23.08784 39119 ft 550 kts 157°
2026-05-05 01:49 36.13821 23.12990 39115 ft 550 kts 157°
2026-05-05 01:49 36.06960 23.17196 39113 ft 550 kts 157°
2026-05-05 01:50 36.00100 23.21387 39119 ft 550 kts 157°
2026-05-05 01:50 35.93233 23.25572 39119 ft 550 kts 157°
2026-05-05 01:51 35.86366 23.29750 39121 ft 551 kts 157°
2026-05-05 01:51 35.79491 23.33925 39115 ft 551 kts 157°
2026-05-05 01:52 35.72609 23.38097 39119 ft 552 kts 157°
2026-05-05 01:52 35.65717 23.42268 39118 ft 552 kts 157°
2026-05-05 01:53 35.58825 23.46430 39121 ft 552 kts 157°
2026-05-05 01:53 35.51915 23.50594 39121 ft 554 kts 157°
2026-05-05 01:54 35.44996 23.54757 39121 ft 554 kts 157°
2026-05-05 01:54 35.38071 23.58916 39121 ft 554 kts 157°
2026-05-05 01:55 35.31185 23.63043 39094 ft 554 kts 158°
2026-05-05 01:55 35.24246 23.67191 39121 ft 555 kts 158°
2026-05-05 01:56 35.17336 23.71416 39116 ft 556 kts 156°
2026-05-05 01:56 35.10484 23.75819 39123 ft 556 kts 155°
2026-05-05 01:57 35.03636 23.80219 39093 ft 556 kts 156°
2026-05-05 01:57 34.96765 23.84588 39108 ft 557 kts 156°
2026-05-05 01:58 34.89883 23.88938 39102 ft 557 kts 156°
2026-05-05 01:58 34.83001 23.93276 39105 ft 557 kts 156°
2026-05-05 01:59 34.76119 23.97608 39112 ft 557 kts 156°
2026-05-05 01:59 34.69230 24.01937 39106 ft 557 kts 156°
2026-05-05 02:00 34.62340 24.06261 39113 ft 557 kts 156°
2026-05-05 02:00 34.55444 24.10578 39118 ft 558 kts 156°
2026-05-05 02:01 34.48535 24.14893 39102 ft 559 kts 156°
2026-05-05 02:01 34.41626 24.19202 39107 ft 558 kts 156°
2026-05-05 02:02 34.34771 24.23469 39109 ft 558 kts 156°
2026-05-05 02:02 34.27818 24.27790 39114 ft 558 kts 156°
2026-05-05 02:03 34.20962 24.32042 39097 ft 557 kts 156°
2026-05-05 02:03 34.14067 24.36311 39113 ft 556 kts 156°
2026-05-05 02:04 34.07185 24.40563 39118 ft 556 kts 156°
2026-05-05 02:04 34.00377 24.45069 39115 ft 562 kts 147°
2026-05-05 02:05 33.94303 24.51028 39099 ft 564 kts 140°
2026-05-05 02:05 33.88451 24.57312 39116 ft 563 kts 139°
2026-05-05 02:06 33.82642 24.63625 39116 ft 563 kts 139°
2026-05-05 02:06 33.76812 24.69911 39113 ft 563 kts 140°
2026-05-05 02:07 33.70970 24.76165 39110 ft 563 kts 140°
2026-05-05 02:07 33.65121 24.82405 39111 ft 562 kts 140°
2026-05-05 02:08 33.59274 24.88633 39112 ft 562 kts 140°
2026-05-05 02:08 33.53432 24.94845 39113 ft 561 kts 140°
2026-05-05 02:09 33.47590 25.01046 39117 ft 561 kts 140°
2026-05-05 02:09 33.41740 25.07243 39110 ft 562 kts 140°
2026-05-05 02:10 33.35880 25.13441 39116 ft 562 kts 140°
2026-05-05 02:10 33.30056 25.19588 39113 ft 562 kts 140°
2026-05-05 02:11 33.24191 25.25767 39118 ft 562 kts 140°
2026-05-05 02:11 33.18322 25.31939 39116 ft 562 kts 140°
2026-05-05 02:12 33.09503 25.41191 39115 ft 564 kts 140°
2026-05-05 02:13 33.03610 25.47359 39116 ft 564 kts 140°
2026-05-05 02:13 32.97717 25.53517 39114 ft 563 kts 140°
2026-05-05 02:14 32.91831 25.59655 39115 ft 562 kts 140°
2026-05-05 02:14 32.85949 25.65778 39118 ft 562 kts 140°
2026-05-05 02:15 32.80056 25.71900 39116 ft 563 kts 140°
2026-05-05 02:15 32.74155 25.78021 39118 ft 563 kts 140°
2026-05-05 02:16 32.68256 25.84128 39116 ft 563 kts 141°
2026-05-05 02:16 32.62363 25.90218 39118 ft 561 kts 141°
2026-05-05 02:17 32.56470 25.96297 39123 ft 561 kts 141°
2026-05-05 02:17 32.50574 26.02367 39117 ft 561 kts 141°
2026-05-05 02:18 32.45675 26.07403 39118 ft 561 kts 141°
2026-05-05 02:18 32.39775 26.13457 39118 ft 561 kts 141°
2026-05-05 02:19 32.33878 26.19499 39112 ft 560 kts 141°
2026-05-05 02:19 32.27989 26.25521 39116 ft 559 kts 141°
2026-05-05 02:20 32.22097 26.31535 39120 ft 560 kts 141°
2026-05-05 02:20 32.16202 26.37540 39117 ft 560 kts 141°
2026-05-05 02:21 32.10301 26.43542 39116 ft 560 kts 141°
2026-05-05 02:21 32.04400 26.49535 39123 ft 559 kts 142°
2026-05-05 02:22 31.98510 26.55506 39109 ft 558 kts 142°
2026-05-05 02:22 31.92621 26.61463 39117 ft 558 kts 142°
2026-05-05 02:23 31.86732 26.67410 39119 ft 558 kts 142°
2026-05-05 02:23 31.80845 26.73345 39117 ft 558 kts 142°
2026-05-05 02:24 31.74953 26.79276 39089 ft 558 kts 142°
2026-05-05 02:24 31.69066 26.85191 39118 ft 556 kts 142°
2026-05-05 02:25 31.63194 26.91080 39120 ft 555 kts 142°
2026-05-05 02:25 31.57320 26.96961 39124 ft 555 kts 142°
2026-05-05 02:26 31.51483 27.02795 39122 ft 555 kts 142°
2026-05-05 02:26 31.45603 27.08663 39123 ft 555 kts 142°
2026-05-05 02:27 31.39728 27.14516 39114 ft 554 kts 143°
2026-05-05 02:27 31.33890 27.20389 39156 ft 555 kts 140°
2026-05-05 02:27 31.31283 27.23734 39158 ft 558 kts 129°
2026-05-05 02:28 31.28969 27.27380 39157 ft 559 kts 127°
2026-05-05 02:28 31.24558 27.34867 39151 ft 560 kts 126°
2026-05-05 02:29 31.20229 27.42428 39141 ft 560 kts 125°
2026-05-05 02:29 31.15887 27.49968 39133 ft 559 kts 126°
2026-05-05 02:30 31.11518 27.57477 39121 ft 559 kts 126°
2026-05-05 02:30 31.07082 27.64914 39124 ft 558 kts 127°
2026-05-05 02:31 31.02628 27.72332 39120 ft 558 kts 127°
2026-05-05 02:31 30.98185 27.79735 39120 ft 557 kts 127°
2026-05-05 02:32 30.93745 27.87136 39118 ft 557 kts 127°
2026-05-05 02:32 30.89331 27.94485 39121 ft 557 kts 127°
2026-05-05 02:33 30.84885 28.01874 39123 ft 557 kts 127°
2026-05-05 02:33 30.80437 28.09252 39122 ft 557 kts 128°
2026-05-05 02:34 30.75990 28.16615 39117 ft 556 kts 128°
2026-05-05 02:34 30.71539 28.23969 39122 ft 556 kts 128°
2026-05-05 02:35 30.67085 28.31316 39122 ft 556 kts 128°
2026-05-05 02:35 30.62630 28.38650 39121 ft 555 kts 128°
2026-05-05 02:36 30.58186 28.45956 39118 ft 553 kts 129°
2026-05-05 02:36 30.53744 28.53240 39121 ft 553 kts 129°
2026-05-05 02:37 30.49299 28.60516 39121 ft 553 kts 129°
2026-05-05 02:37 30.44852 28.67784 39115 ft 553 kts 129°
2026-05-05 02:38 30.40404 28.75041 39114 ft 552 kts 129°
2026-05-05 02:38 30.35953 28.82288 39114 ft 552 kts 129°
2026-05-05 02:39 30.31502 28.89523 39115 ft 552 kts 129°
2026-05-05 02:39 30.27044 28.96756 39105 ft 552 kts 129°
2026-05-05 02:40 30.22588 29.03974 39074 ft 551 kts 130°
2026-05-05 02:40 30.18135 29.11177 39104 ft 550 kts 130°
2026-05-05 02:41 30.13695 29.18370 39104 ft 550 kts 130°
2026-05-05 02:41 30.09282 29.25581 39108 ft 550 kts 129°
2026-05-05 02:42 30.04947 29.32789 39106 ft 551 kts 129°
2026-05-05 02:42 30.00576 29.40047 39105 ft 551 kts 129°
2026-05-05 02:43 29.96194 29.47290 39106 ft 550 kts 129°
2026-05-05 02:43 29.91806 29.54518 39108 ft 550 kts 130°
2026-05-05 02:44 29.87409 29.61746 39113 ft 551 kts 130°
2026-05-05 02:44 29.83004 29.68974 39114 ft 551 kts 130°
2026-05-05 02:45 29.78598 29.76192 39111 ft 551 kts 130°
2026-05-05 02:45 29.74187 29.83408 39118 ft 551 kts 130°
2026-05-05 02:46 29.69767 29.90623 39119 ft 552 kts 130°
2026-05-05 02:46 29.65342 29.97834 39118 ft 552 kts 130°
2026-05-05 02:47 29.60912 30.05044 39119 ft 552 kts 130°
2026-05-05 02:47 29.56476 30.12247 39118 ft 552 kts 131°
2026-05-05 02:48 29.52039 30.19442 39119 ft 552 kts 131°
2026-05-05 02:48 29.47600 30.26625 39119 ft 552 kts 131°
2026-05-05 02:49 29.43158 30.33801 39124 ft 552 kts 131°
2026-05-05 02:49 29.38485 30.40706 39123 ft 544 kts 139°
2026-05-05 02:50 29.33351 30.47018 39122 ft 540 kts 141°
2026-05-05 02:50 29.28146 30.53206 39123 ft 539 kts 141°
2026-05-05 02:51 29.22937 30.59371 39124 ft 539 kts 141°
2026-05-05 02:51 29.17766 30.65503 39124 ft 539 kts 141°
2026-05-05 02:52 29.12563 30.71679 39125 ft 539 kts 141°
2026-05-05 02:52 29.07361 30.77847 39128 ft 539 kts 141°
2026-05-05 02:53 29.02154 30.84011 39120 ft 539 kts 141°
2026-05-05 02:53 28.96952 30.90160 39132 ft 538 kts 141°
2026-05-05 02:54 28.91748 30.96301 39118 ft 538 kts 141°
2026-05-05 02:54 28.86553 31.02422 39119 ft 536 kts 142°
2026-05-05 02:55 28.81362 31.08527 39124 ft 536 kts 142°
2026-05-05 02:55 28.76170 31.14625 39124 ft 536 kts 142°
2026-05-05 02:56 28.70974 31.20717 39116 ft 536 kts 142°
2026-05-05 02:56 28.65848 31.26906 39102 ft 538 kts 140°
2026-05-05 02:57 28.60863 31.33265 39115 ft 538 kts 139°
2026-05-05 02:57 28.55881 31.39618 39114 ft 538 kts 139°
2026-05-05 02:58 28.50876 31.45934 39117 ft 537 kts 140°
2026-05-05 02:58 28.45853 31.52232 39114 ft 537 kts 140°
2026-05-05 02:59 28.40832 31.58515 39114 ft 537 kts 140°
2026-05-05 02:59 28.35811 31.64789 39113 ft 537 kts 140°
2026-05-05 03:00 28.30789 31.71056 39103 ft 536 kts 140°
2026-05-05 03:00 28.25764 31.77318 39117 ft 537 kts 140°
2026-05-05 03:01 28.20768 31.83535 39118 ft 537 kts 140°
2026-05-05 03:01 28.15736 31.89787 39121 ft 537 kts 140°
2026-05-05 03:02 28.10702 31.96034 39119 ft 537 kts 140°
2026-05-05 03:02 28.05666 32.02277 39122 ft 538 kts 140°
2026-05-05 03:03 28.01340 32.09317 39109 ft 550 kts 127°
2026-05-05 03:03 27.97595 32.16900 39118 ft 553 kts 124°
2026-05-05 03:04 27.93948 32.24562 39110 ft 553 kts 124°
2026-05-05 03:04 27.90287 32.32219 39070 ft 553 kts 124°
2026-05-05 03:05 27.86601 32.39857 39102 ft 554 kts 124°
2026-05-05 03:05 27.82899 32.47493 39097 ft 554 kts 124°
2026-05-05 03:06 27.79195 32.55119 39091 ft 554 kts 125°
2026-05-05 03:06 27.75490 32.62733 39077 ft 554 kts 125°
2026-05-05 03:07 27.71801 32.70302 39089 ft 554 kts 125°
2026-05-05 03:07 27.68081 32.77922 39075 ft 554 kts 125°
2026-05-05 03:08 27.64359 32.85532 39067 ft 554 kts 125°
2026-05-05 03:08 27.61238 32.91902 39061 ft 554 kts 125°
2026-05-05 03:09 27.57508 32.99501 39062 ft 554 kts 126°
2026-05-05 03:09 27.53774 33.07096 39052 ft 554 kts 126°
2026-05-05 03:10 27.50041 33.14679 39053 ft 554 kts 126°
2026-05-05 03:10 27.46299 33.22264 39045 ft 554 kts 126°
2026-05-05 03:11 27.42549 33.29850 39034 ft 554 kts 126°
2026-05-05 03:11 27.38797 33.37427 39023 ft 554 kts 126°
2026-05-05 03:12 27.35045 33.45002 38990 ft 554 kts 126°
2026-05-05 03:12 27.31309 33.52515 39017 ft 554 kts 126°
2026-05-05 03:13 27.27542 33.60076 39014 ft 554 kts 126°
2026-05-05 03:13 27.23769 33.67639 39017 ft 554 kts 126°
2026-05-05 03:14 27.19995 33.75193 38994 ft 555 kts 127°
2026-05-05 03:14 27.16585 33.83035 38988 ft 563 kts 119°
2026-05-05 03:15 27.13622 33.91184 38994 ft 564 kts 118°
2026-05-05 03:15 27.10732 33.99376 38981 ft 564 kts 118°
2026-05-05 03:16 27.07841 34.07553 38990 ft 563 kts 118°
2026-05-05 03:16 27.04932 34.15710 38982 ft 563 kts 118°
2026-05-05 03:17 27.02015 34.23857 38972 ft 563 kts 118°
2026-05-05 03:17 26.99103 34.31979 38978 ft 561 kts 118°
2026-05-05 03:18 26.96183 34.40085 38977 ft 561 kts 118°
2026-05-05 03:18 26.93259 34.48188 38966 ft 561 kts 118°
2026-05-05 03:19 26.88870 34.60326 38973 ft 560 kts 118°
2026-05-05 03:19 26.85938 34.68417 38972 ft 560 kts 118°
2026-05-05 03:20 26.83004 34.76497 38958 ft 561 kts 118°
2026-05-05 03:20 26.80061 34.84582 38961 ft 561 kts 118°
2026-05-05 03:21 26.77112 34.92667 38963 ft 561 kts 119°
2026-05-05 03:21 26.74183 35.00701 38956 ft 561 kts 119°
2026-05-05 03:22 26.71227 35.08777 38957 ft 561 kts 119°
2026-05-05 03:22 26.68265 35.16850 38959 ft 561 kts 119°
2026-05-05 03:23 26.65303 35.24913 38931 ft 561 kts 119°
2026-05-05 03:23 26.62337 35.32971 38954 ft 560 kts 119°
2026-05-05 03:24 26.59367 35.41023 38949 ft 560 kts 119°
2026-05-05 03:24 26.56396 35.49062 38944 ft 560 kts 119°
2026-05-05 03:25 26.53379 35.57062 38936 ft 559 kts 120°
2026-05-05 03:25 26.50313 35.65030 38936 ft 558 kts 120°
2026-05-05 03:26 26.47248 35.72996 38936 ft 558 kts 120°
2026-05-05 03:26 26.44191 35.80958 38920 ft 558 kts 120°
2026-05-05 03:27 26.41135 35.88915 38930 ft 558 kts 120°
2026-05-05 03:27 26.38076 35.96864 38928 ft 558 kts 120°
2026-05-05 03:28 26.35031 36.04758 38929 ft 558 kts 120°
2026-05-05 03:28 26.31962 36.12699 38922 ft 558 kts 120°
2026-05-05 03:29 26.28890 36.20635 38919 ft 558 kts 120°
2026-05-05 03:29 26.25811 36.28570 38909 ft 557 kts 120°
2026-05-05 03:30 26.22735 36.36484 38906 ft 556 kts 120°
2026-05-05 03:30 26.19657 36.44388 38922 ft 556 kts 120°
2026-05-05 03:31 26.16304 36.52093 38912 ft 550 kts 126°
2026-05-05 03:31 26.12672 36.59570 38922 ft 548 kts 126°
2026-05-05 03:32 26.08997 36.66995 38923 ft 547 kts 127°
2026-05-05 03:32 26.05321 36.74408 38922 ft 547 kts 127°
2026-05-05 03:33 26.01655 36.81814 38926 ft 545 kts 127°
2026-05-05 03:33 25.97999 36.89196 38930 ft 545 kts 127°
2026-05-05 03:34 25.94341 36.96568 38933 ft 545 kts 127°
2026-05-05 03:34 25.90683 37.03927 38922 ft 544 kts 127°
2026-05-05 03:35 25.87026 37.11275 38927 ft 543 kts 127°
2026-05-05 03:35 25.83371 37.18606 38928 ft 543 kts 127°
2026-05-05 03:36 25.79710 37.25937 38930 ft 543 kts 127°
2026-05-05 03:36 25.76062 37.33268 38939 ft 543 kts 127°
2026-05-05 03:37 25.72412 37.40601 38940 ft 543 kts 127°
2026-05-05 03:37 25.68762 37.47921 38940 ft 542 kts 127°
2026-05-05 03:38 25.65106 37.55234 38961 ft 542 kts 127°
2026-05-05 03:38 25.61453 37.62542 38955 ft 542 kts 127°
2026-05-05 03:39 25.57791 37.69847 38933 ft 542 kts 127°
2026-05-05 03:39 25.54123 37.77145 38940 ft 542 kts 127°
2026-05-05 03:40 25.50455 37.84435 38931 ft 542 kts 127°
2026-05-05 03:40 25.46811 37.91668 38924 ft 542 kts 127°
2026-05-05 03:41 25.43139 37.98946 38922 ft 541 kts 128°
2026-05-05 03:41 25.39465 38.06210 38911 ft 541 kts 128°
2026-05-05 03:42 25.35792 38.13468 38914 ft 541 kts 128°
2026-05-05 03:42 25.32115 38.20721 38895 ft 541 kts 128°
2026-05-05 03:43 25.28441 38.27960 38914 ft 539 kts 128°
2026-05-05 03:43 25.24768 38.35185 38913 ft 539 kts 128°
2026-05-05 03:44 25.21090 38.42402 38919 ft 539 kts 128°
2026-05-05 03:44 25.17413 38.49610 38925 ft 539 kts 128°
2026-05-05 03:45 25.13734 38.56816 38924 ft 539 kts 128°
2026-05-05 03:45 25.10043 38.64012 38902 ft 538 kts 128°
2026-05-05 03:46 25.06352 38.71196 38921 ft 539 kts 128°
2026-05-05 03:46 25.02655 38.78395 38924 ft 540 kts 128°
2026-05-05 03:47 24.98954 38.85589 38933 ft 538 kts 128°
2026-05-05 03:47 24.95256 38.92753 38921 ft 538 kts 128°
2026-05-05 03:48 24.91553 38.99910 38941 ft 537 kts 128°
2026-05-05 03:48 24.87849 39.07059 38944 ft 537 kts 128°
2026-05-05 03:49 24.84138 39.14210 38952 ft 538 kts 128°
2026-05-05 03:49 24.80451 39.21314 38950 ft 538 kts 128°
2026-05-05 03:50 24.76736 39.28463 38956 ft 538 kts 128°
2026-05-05 03:50 24.73015 39.35603 38959 ft 538 kts 129°
2026-05-05 03:51 24.69291 39.42740 38970 ft 538 kts 129°
2026-05-05 03:51 24.65561 39.49869 38967 ft 538 kts 129°
2026-05-05 03:52 24.61835 39.56994 38945 ft 538 kts 129°
2026-05-05 03:52 24.58115 39.64112 38968 ft 537 kts 129°
2026-05-05 03:53 24.55015 39.71675 38967 ft 556 kts 112°
2026-05-05 03:53 24.53717 39.80139 38967 ft 565 kts 102°
2026-05-05 03:54 24.52905 39.88727 38965 ft 564 kts 101°
2026-05-05 03:54 24.52152 39.97296 38969 ft 563 kts 101°
2026-05-05 03:55 24.51354 40.05849 38964 ft 563 kts 102°
2026-05-05 03:55 24.50664 40.12951 38976 ft 563 kts 102°
2026-05-05 03:56 24.49822 40.21497 38974 ft 563 kts 102°
2026-05-05 03:56 24.48975 40.30044 38969 ft 563 kts 102°
2026-05-05 03:57 24.48126 40.38584 38966 ft 563 kts 102°
2026-05-05 03:57 24.47272 40.47129 38972 ft 563 kts 102°
2026-05-05 03:58 24.46415 40.55660 38977 ft 562 kts 101°
2026-05-05 03:58 24.45555 40.64182 38979 ft 562 kts 102°
2026-05-05 03:59 24.44687 40.72704 38994 ft 562 kts 102°
2026-05-05 03:59 24.43813 40.81225 38977 ft 562 kts 102°
2026-05-05 04:00 24.42933 40.89758 38990 ft 563 kts 102°
2026-05-05 04:00 24.42056 40.98229 38986 ft 562 kts 102°
2026-05-05 04:01 24.41169 41.06751 38986 ft 562 kts 102°
2026-05-05 04:01 24.40279 41.15271 38980 ft 562 kts 102°
2026-05-05 04:02 24.39384 41.23779 38988 ft 561 kts 102°
2026-05-05 04:02 24.38486 41.32281 38991 ft 561 kts 102°
2026-05-05 04:03 24.37583 41.40777 38990 ft 561 kts 102°
2026-05-05 04:03 24.36676 41.49266 38993 ft 560 kts 102°
2026-05-05 04:04 24.35765 41.57747 38981 ft 560 kts 102°
2026-05-05 04:04 24.34850 41.66224 38989 ft 559 kts 102°
2026-05-05 04:05 24.33932 41.74689 38989 ft 559 kts 102°
2026-05-05 04:05 24.32797 41.83083 39007 ft 551 kts 111°
2026-05-05 04:06 24.30833 41.91186 38993 ft 550 kts 112°
2026-05-05 04:06 24.28714 41.99231 38978 ft 549 kts 113°
2026-05-05 04:07 24.26573 42.07259 38992 ft 548 kts 112°
2026-05-05 04:07 24.24443 42.15276 38989 ft 548 kts 112°
2026-05-05 04:08 24.22320 42.23288 38982 ft 547 kts 112°
2026-05-05 04:08 24.20202 42.31279 38987 ft 546 kts 112°
2026-05-05 04:09 24.18082 42.39254 38988 ft 545 kts 112°
2026-05-05 04:09 24.15956 42.47227 38984 ft 545 kts 112°
2026-05-05 04:10 24.13829 42.55188 38989 ft 545 kts 112°
2026-05-05 04:10 24.11699 42.63144 38975 ft 544 kts 112°
2026-05-05 04:11 24.09567 42.71090 38987 ft 544 kts 112°
2026-05-05 04:11 24.07447 42.78973 38985 ft 544 kts 112°
2026-05-05 04:12 24.05308 42.86905 38985 ft 544 kts 112°
2026-05-05 04:12 24.03166 42.94835 38986 ft 544 kts 112°
2026-05-05 04:13 24.01018 43.02764 38982 ft 543 kts 112°
2026-05-05 04:13 23.98870 43.10676 38989 ft 542 kts 112°
2026-05-05 04:14 23.96723 43.18570 38989 ft 542 kts 112°
2026-05-05 04:14 23.94570 43.26461 38990 ft 541 kts 112°
2026-05-05 04:15 23.92419 43.34333 38993 ft 541 kts 112°
2026-05-05 04:15 23.90263 43.42206 38992 ft 540 kts 112°
2026-05-05 04:16 23.88104 43.50069 38988 ft 540 kts 112°
2026-05-05 04:16 23.85941 43.57932 38981 ft 540 kts 112°
2026-05-05 04:17 23.83776 43.65784 38972 ft 540 kts 112°
2026-05-05 04:17 23.81611 43.73625 38969 ft 539 kts 112°
2026-05-05 04:18 23.79444 43.81453 38962 ft 539 kts 112°
2026-05-05 04:18 23.77520 43.89375 38964 ft 545 kts 103°
2026-05-05 04:19 23.76688 43.97625 38956 ft 548 kts 99°
2026-05-05 04:19 23.76078 44.05917 38940 ft 548 kts 98°
2026-05-05 04:20 23.75498 44.14154 38939 ft 548 kts 98°
2026-05-05 04:20 23.74890 44.22448 38941 ft 549 kts 99°
2026-05-05 04:21 23.74263 44.30744 38936 ft 548 kts 99°
2026-05-05 04:21 23.73628 44.39034 38938 ft 548 kts 99°
2026-05-05 04:22 23.72990 44.47321 38934 ft 548 kts 99°
2026-05-05 04:22 23.72349 44.55596 38934 ft 547 kts 99°
2026-05-05 04:23 23.71704 44.63867 38924 ft 547 kts 98°
2026-05-05 04:23 23.71056 44.72123 38925 ft 546 kts 99°
2026-05-05 04:24 23.70404 44.80368 38923 ft 545 kts 99°
2026-05-05 04:25 23.69421 44.92739 38928 ft 545 kts 99°
2026-05-05 04:25 23.68757 45.00983 38914 ft 546 kts 99°
2026-05-05 04:26 23.68086 45.09227 38918 ft 545 kts 98°
2026-05-05 04:26 23.67416 45.17446 38914 ft 544 kts 99°
2026-05-05 04:27 23.66749 45.25603 38911 ft 544 kts 99°
2026-05-05 04:27 23.66071 45.33818 38908 ft 544 kts 99°
2026-05-05 04:28 23.65386 45.42029 38907 ft 544 kts 99°
2026-05-05 04:28 23.64698 45.50240 38903 ft 544 kts 99°
2026-05-05 04:29 23.64005 45.58459 38892 ft 543 kts 98°
2026-05-05 04:29 23.63316 45.66645 38899 ft 542 kts 98°
2026-05-05 04:30 23.62619 45.74816 38898 ft 541 kts 99°
2026-05-05 04:30 23.61915 45.82985 38894 ft 541 kts 98°
2026-05-05 04:31 23.61208 45.91141 38895 ft 540 kts 98°
2026-05-05 04:31 23.60499 45.99297 38899 ft 540 kts 98°
2026-05-05 04:32 23.59785 46.07448 38905 ft 540 kts 98°
2026-05-05 04:32 23.59068 46.15601 38907 ft 540 kts 98°
2026-05-05 04:33 23.58345 46.23758 38898 ft 541 kts 98°
2026-05-05 04:33 23.57616 46.31926 38904 ft 541 kts 98°
2026-05-05 04:34 23.56885 46.40094 38907 ft 542 kts 98°
2026-05-05 04:34 23.56148 46.48282 38914 ft 543 kts 98°
2026-05-05 04:35 23.55406 46.56476 38906 ft 544 kts 98°
2026-05-05 04:35 23.54657 46.64674 38900 ft 544 kts 98°
2026-05-05 04:36 23.53911 46.72816 38905 ft 543 kts 98°
2026-05-05 04:36 23.53154 46.81012 38903 ft 543 kts 98°
2026-05-05 04:37 23.52394 46.89199 38893 ft 543 kts 98°
2026-05-05 04:37 23.51629 46.97387 38904 ft 543 kts 98°
2026-05-05 04:38 23.50860 47.05577 38891 ft 544 kts 99°
2026-05-05 04:38 23.50081 47.13822 38878 ft 543 kts 98°
2026-05-05 04:39 23.49311 47.21939 38886 ft 542 kts 98°
2026-05-05 04:39 23.48531 47.30101 38886 ft 542 kts 98°
2026-05-05 04:40 23.47748 47.38259 38882 ft 542 kts 99°
2026-05-05 04:40 23.46959 47.46423 38881 ft 542 kts 99°
2026-05-05 04:41 23.46170 47.54580 38878 ft 542 kts 99°
2026-05-05 04:41 23.45375 47.62743 38873 ft 542 kts 99°
2026-05-05 04:42 23.44572 47.70904 38864 ft 542 kts 98°
2026-05-05 04:42 23.43768 47.79044 38867 ft 540 kts 99°
2026-05-05 04:43 23.42962 47.87166 38867 ft 539 kts 99°
2026-05-05 04:43 23.42153 47.95283 38859 ft 539 kts 99°
2026-05-05 04:44 23.41340 48.03396 38858 ft 539 kts 99°
2026-05-05 04:44 23.40660 48.10145 38852 ft 540 kts 99°
2026-05-05 04:45 23.39838 48.18270 38847 ft 540 kts 99°
2026-05-05 04:45 23.39012 48.26393 38843 ft 539 kts 99°
2026-05-05 04:46 23.38186 48.34481 38844 ft 537 kts 99°
2026-05-05 04:46 23.37680 48.42598 38841 ft 538 kts 94°
2026-05-05 04:47 23.37462 48.50742 38839 ft 539 kts 94°
2026-05-05 04:47 23.37268 48.57256 38831 ft 536 kts 94°
2026-05-05 04:48 23.36964 48.65373 38833 ft 538 kts 95°
2026-05-05 04:48 23.36624 48.73504 38835 ft 538 kts 95°
2026-05-05 04:49 23.36276 48.81640 38837 ft 538 kts 95°
2026-05-05 04:49 23.36705 48.89768 38830 ft 541 kts 78°
2026-05-05 04:50 23.39145 48.97499 38830 ft 540 kts 66°
2026-05-05 04:50 23.42293 49.04939 38831 ft 542 kts 64°
2026-05-05 04:51 23.45529 49.12292 38830 ft 542 kts 64°
2026-05-05 04:51 23.48745 49.19727 38826 ft 543 kts 64°
2026-05-05 04:52 23.51921 49.27187 38822 ft 543 kts 65°
2026-05-05 04:52 23.55079 49.34651 38820 ft 542 kts 65°
2026-05-05 04:53 23.58233 49.42113 38824 ft 542 kts 65°
2026-05-05 04:53 23.61385 49.49581 38825 ft 542 kts 65°
2026-05-05 04:54 23.64535 49.57050 38690 ft 542 kts 65°
2026-05-05 04:54 23.66105 49.60778 38455 ft 541 kts 65°
2026-05-05 04:54 23.67676 49.64511 38183 ft 541 kts 65°
2026-05-05 04:54 23.69245 49.68243 37923 ft 542 kts 65°
2026-05-05 04:55 23.70815 49.71980 37656 ft 542 kts 65°
2026-05-05 04:55 23.72384 49.75716 37390 ft 542 kts 65°
2026-05-05 04:55 23.73955 49.79463 37143 ft 543 kts 64°
2026-05-05 04:55 23.75526 49.83211 36887 ft 543 kts 64°
2026-05-05 04:56 23.77096 49.86960 36641 ft 544 kts 64°
2026-05-05 04:56 23.78667 49.90716 36396 ft 544 kts 64°
2026-05-05 04:56 23.80237 49.94471 36155 ft 544 kts 64°
2026-05-05 04:56 23.81808 49.98231 35900 ft 545 kts 64°
2026-05-05 04:57 23.83379 50.01996 35671 ft 545 kts 64°
2026-05-05 04:57 23.84950 50.05762 35435 ft 545 kts 64°
2026-05-05 04:57 23.86520 50.09530 35201 ft 545 kts 64°
2026-05-05 04:57 23.88090 50.13300 34967 ft 545 kts 64°
2026-05-05 04:58 23.89661 50.17077 34741 ft 546 kts 64°
2026-05-05 04:58 23.91227 50.20846 34323 ft 543 kts 64°
2026-05-05 04:58 23.92770 50.24560 33524 ft 545 kts 64°
2026-05-05 04:58 23.94339 50.28340 32622 ft 547 kts 64°
2026-05-05 04:59 23.95912 50.32132 31889 ft 546 kts 65°
2026-05-05 04:59 23.97471 50.35894 31297 ft 542 kts 65°
2026-05-05 04:59 23.99019 50.39635 30699 ft 538 kts 65°
2026-05-05 04:59 24.00555 50.43348 30093 ft 535 kts 65°
2026-05-05 05:00 24.02082 50.47044 29425 ft 532 kts 65°
2026-05-05 05:00 24.03598 50.50716 28797 ft 527 kts 65°
2026-05-05 05:00 24.05094 50.54344 28192 ft 521 kts 65°
2026-05-05 05:00 24.06579 50.57945 27626 ft 516 kts 65°
2026-05-05 05:01 24.08047 50.61511 27029 ft 511 kts 65°
2026-05-05 05:01 24.09500 50.65040 26440 ft 507 kts 65°
2026-05-05 05:01 24.10938 50.68538 25869 ft 502 kts 65°
2026-05-05 05:01 24.12362 50.72003 25294 ft 497 kts 65°
2026-05-05 05:02 24.13773 50.75439 24737 ft 492 kts 65°
2026-05-05 05:02 24.15166 50.78833 24197 ft 486 kts 65°
2026-05-05 05:02 24.16541 50.82189 23700 ft 480 kts 65°
2026-05-05 05:02 24.17901 50.85508 23127 ft 475 kts 65°
2026-05-05 05:03 24.19245 50.88791 22446 ft 470 kts 65°
2026-05-05 05:03 24.20575 50.92041 21797 ft 466 kts 65°
2026-05-05 05:03 24.21892 50.95262 21173 ft 461 kts 65°
2026-05-05 05:03 24.23193 50.98448 20588 ft 455 kts 65°
2026-05-05 05:04 24.24479 51.01597 20009 ft 450 kts 65°
2026-05-05 05:04 24.25749 51.04711 19429 ft 445 kts 65°
2026-05-05 05:04 24.27005 51.07792 18860 ft 441 kts 65°
2026-05-05 05:04 24.28249 51.10846 18287 ft 437 kts 65°
2026-05-05 05:05 24.29481 51.13873 17661 ft 433 kts 65°
2026-05-05 05:05 24.30698 51.16866 17076 ft 427 kts 65°
2026-05-05 05:05 24.31898 51.19822 16510 ft 421 kts 65°
2026-05-05 05:05 24.33225 51.22649 15977 ft 413 kts 55°
2026-05-05 05:06 24.34988 51.25092 15482 ft 405 kts 46°
2026-05-05 05:06 24.36873 51.27290 14979 ft 398 kts 43°
2026-05-05 05:06 24.38841 51.29390 14488 ft 392 kts 40°
2026-05-05 05:06 24.40822 51.31412 13994 ft 386 kts 39°
2026-05-05 05:07 24.42788 51.33390 13493 ft 381 kts 39°
2026-05-05 05:07 24.44725 51.35340 12979 ft 375 kts 39°
2026-05-05 05:07 24.46622 51.37265 12514 ft 368 kts 39°
2026-05-05 05:07 24.48480 51.39164 12028 ft 362 kts 40°
2026-05-05 05:08 24.50304 51.41040 11558 ft 356 kts 40°
2026-05-05 05:08 24.52136 51.42829 11192 ft 346 kts 34°
2026-05-05 05:08 24.54141 51.44140 11044 ft 327 kts 24°
2026-05-05 05:08 24.56155 51.45184 10928 ft 312 kts 21°
2026-05-05 05:09 24.58094 51.46135 10799 ft 299 kts 21°
2026-05-05 05:09 24.59959 51.47033 10671 ft 286 kts 21°
2026-05-05 05:09 24.61745 51.47884 10540 ft 274 kts 20°
2026-05-05 05:09 24.63470 51.48702 10360 ft 267 kts 20°
2026-05-05 05:10 24.65172 51.49504 10116 ft 265 kts 20°
2026-05-05 05:10 24.66873 51.50304 9847 ft 271 kts 20°
2026-05-05 05:10 24.68655 51.51139 9747 ft 282 kts 21°
2026-05-05 05:10 24.70448 51.51983 9415 ft 280 kts 21°
2026-05-05 05:11 24.72247 51.52831 8939 ft 281 kts 21°
2026-05-05 05:11 24.74045 51.53678 8599 ft 281 kts 21°
2026-05-05 05:11 24.75837 51.54522 8285 ft 280 kts 21°
2026-05-05 05:11 24.77622 51.55364 7988 ft 279 kts 21°
2026-05-05 05:12 24.79400 51.56202 7683 ft 278 kts 22°
2026-05-05 05:12 24.81175 51.57039 7382 ft 277 kts 22°
2026-05-05 05:12 24.82941 51.57873 7083 ft 275 kts 22°
2026-05-05 05:12 24.84663 51.58686 6787 ft 272 kts 22°
2026-05-05 05:13 24.86399 51.59505 6488 ft 271 kts 22°
2026-05-05 05:13 24.88103 51.60310 6191 ft 270 kts 22°
2026-05-05 05:13 24.89824 51.61122 5890 ft 269 kts 22°
2026-05-05 05:13 24.91544 51.61935 5579 ft 269 kts 22°
2026-05-05 05:14 24.93262 51.62747 5283 ft 269 kts 22°
2026-05-05 05:14 24.94983 51.63560 4979 ft 269 kts 22°
2026-05-05 05:14 24.96704 51.64374 4668 ft 269 kts 22°
2026-05-05 05:14 24.98422 51.65187 4354 ft 269 kts 22°
2026-05-05 05:15 25.00138 51.65999 4057 ft 268 kts 22°
2026-05-05 05:15 25.01846 51.66808 3781 ft 265 kts 22°
2026-05-05 05:15 25.03495 51.67589 3681 ft 251 kts 22°
2026-05-05 05:15 25.05053 51.68328 3585 ft 237 kts 22°
2026-05-05 05:16 25.06527 51.69026 3488 ft 224 kts 22°
2026-05-05 05:16 25.07941 51.69636 3363 ft 212 kts 12°
2026-05-05 05:16 25.09368 51.69698 3233 ft 201 kts 353°
2026-05-05 05:16 25.10683 51.69273 3002 ft 196 kts 336°
2026-05-05 05:17 25.11921 51.68659 2717 ft 194 kts 339°
2026-05-05 05:17 25.13169 51.68124 2468 ft 190 kts 340°
2026-05-05 05:17 25.14372 51.67607 2211 ft 180 kts 340°
2026-05-05 05:17 25.15486 51.67113 1991 ft 165 kts 339°
2026-05-05 05:18 25.16513 51.66659 1796 ft 153 kts 340°
2026-05-05 05:18 25.17473 51.66237 1607 ft 144 kts 340°
2026-05-05 05:18 25.18386 51.65835 1438 ft 140 kts 339°
2026-05-05 05:18 25.19288 51.65438 1258 ft 139 kts 339°
2026-05-05 05:19 25.20183 51.65043 1082 ft 139 kts 338°
2026-05-05 05:19 25.21082 51.64645 917 ft 139 kts 338°
2026-05-05 05:19 25.21971 51.64253 760 ft 137 kts 337°
2026-05-05 05:19 25.22845 51.63868 614 ft 137 kts 336°
2026-05-05 05:20 25.23733 51.63473 459 ft 139 kts 336°
2026-05-05 05:20 25.24631 51.63074 293 ft 139 kts 336°
2026-05-05 05:20 25.25516 51.62695 86 ft 134 kts 335°
2026-05-05 05:20 25.26354 51.62321 34 ft 121 kts 338°
2026-05-05 05:21 25.26926 51.62071 30 ft 47 kts 338°
2026-05-05 05:21 25.27156 51.61970 32 ft 33 kts 339°
2026-05-05 05:21 25.27314 51.61887 32 ft 21 kts 325°
2026-05-05 05:21 25.27417 51.61787 34 ft 18 kts 310°
2026-05-05 05:22 25.27466 51.61708 34 ft 9 kts 280°
2026-05-05 05:22 25.27436 51.61661 35 ft 8 kts 202°
2026-05-05 05:22 25.27378 51.61668 35 ft 10 kts 159°
2026-05-05 05:22 25.27307 51.61698 35 ft 12 kts 158°
2026-05-05 05:23 25.27218 51.61738 34 ft 15 kts 158°
2026-05-05 05:23 25.27129 51.61773 34 ft 9 kts 175°
2026-05-05 05:23 25.27100 51.61736 35 ft 7 kts 248°
2026-05-05 05:23 25.27074 51.61662 36 ft 12 kts 248°
2026-05-05 05:24 25.27040 51.61569 36 ft 14 kts 248°
2026-05-05 05:24 25.26998 51.61462 36 ft 16 kts 236°
2026-05-05 05:24 25.26904 51.61406 36 ft 15 kts 202°
2026-05-05 05:24 25.26816 51.61364 36 ft 13 kts 203°
2026-05-05 05:25 25.26733 51.61327 36 ft 11 kts 197°
2026-05-05 05:25 25.26691 51.61323 36 ft 1 kts 188°
2026-05-05 05:25 25.26687 51.61317 36 ft 1 kts 225°
2026-05-05 05:25 25.26683 51.61302 36 ft 2 kts 247°
2026-05-05 05:26 25.26673 51.61274 36 ft 6 kts 248°
2026-05-05 05:26 25.26659 51.61237 36 ft 4 kts 248°
2026-05-05 05:26 25.26654 51.61225 36 ft 0 kts 248°